Skip Page Navigation
NASA JPL Caltech
NASA Logo - Jet Propulsion Laboratory + View the NASA Portal
+ Center for Near-Earth Object Studies
JPL Home Earth Solar System Stars & Galaxies Technology
JPL Solar System Dynamics
BODIES ORBITS EPHEMERIDES TOOLS PHYSICAL DATA DISCOVERY FAQ SITE MAP
JPL Small-Body Database Browser
Search: [ help ]  
442552 (2011 YP60)
Classification: Main-belt Asteroid          SPK-ID: 2442552
Ephemeris | Orbit Diagram | Orbital Elements | Mission Design | Physical Parameters | Discovery Circumstances ]

[ show orbit diagram ]
Orbital Elements at Epoch 2459000.5 (2020-May-31.0) TDB
Reference: JPL 12 (heliocentric ecliptic J2000)
 Element Value Uncertainty (1-sigma)   Units 
e .2234961755830512 7.8377e-08  
a 2.73970964459747 5.1804e-08 au
q 2.127395016821935 2.4742e-07 au
i 8.422662183818151 7.1468e-06 deg
node 151.6408925045302 3.7243e-05 deg
peri 253.0153392078331 4.1813e-05 deg
M 356.3672267248876 2.3378e-05 deg
tp 2459017.214409108938
(2020-Jun-16.71440911)
0.00010792 TDB
period 1656.361909629981
4.53
4.6979e-05
1.286e-07
d
yr
n .2173438050627602 6.1645e-09 deg/d
Q 3.352024272373004 6.3382e-08 au
  Orbit Determination Parameters
   # obs. used (total)      175  
   data-arc span      6582 days (18.02 yr)  
   first obs. used      2001-08-20  
   last obs. used      2019-08-28  
   planetary ephem.      DE431  
   SB-pert. ephem.      SB431-N16  
   condition code      0  
   norm. resid. RMS      .51008  
   source      ORB  
   producer      Otto Matic  
   solution date      2019-Sep-24 07:43:45  

Additional Information
 Earth MOID = 1.1541 au 
 Jupiter MOID = 2.12573 au 
 T_jup = 3.299 
[ show covariance matrix ]

Ephemeris | Orbit Diagram | Orbital Elements | Mission Design | Physical Parameters | Discovery Circumstances ]

Physical Parameter Table
Parameter Symbol Value Units Sigma Reference Notes
absolute magnitude H 16.8   n/a MPO495192  
diameter diameter 2.305 km 0.573 urn:nasa:pds:neowise_diameters_albedos::2.0[mainbelt] (http://adsabs.harvard.edu/abs/2011ApJ...741...68M)  
geometric albedo albedo 0.033   0.032 urn:nasa:pds:neowise_diameters_albedos::2.0[mainbelt] (http://adsabs.harvard.edu/abs/2011ApJ...741...68M)  

442552 (2011 YP60)          Discovered 2006-Oct-16 by CSS at Catalina
Reference: Last Updated: 2015-09-02

Alternate Designations
 2011 YP60 = 2010 JU93 
Ephemeris | Orbit Diagram | Orbital Elements | Mission Design | Physical Parameters | Discovery Circumstances ]
ABOUT SSD CREDITS/AWARDS PRIVACY/COPYRIGHT GLOSSARY LINKS
FirstGov 2020-Jul-10 22:59 UT
(server date/time)  
NASA Home Page
Site Manager:   Ryan S. Park
Webmaster  Alan B. Chamberlin